Location: *
(12.5665°N, 8.3471°E)
Time: 03:41:51
(UTC+00:00)

COSMOS 2441 - Pass Details

Date: 23 September 2019
Orbit: 709 x 730 km, 98.0° (Epoch: 20 October)

Event Time Altitude Azimuth Distance (km) Brightness Sun altitude
Rises 03:32:26 0° 6° (N) 3,138 7.8 -26.0°
Reaches altitude 10° 03:34:43 10° 4° (N) 2,219 7.0 -25.4°
Enters shadow 03:38:50 57° 326° (NW) 856 4.5 -24.4°
